"TOA5","AWS1","CR1000","7964","CR1000.Std.14","CPU:AWS1_114.CR1","64363","TBL110"
"TIMESTAMP","RECORD","Wind_spd_WVc(1)","Wind_spd_WVc(2)","Air_Temp_Avg","Humidity_Avg","SW_upper_Wm2_Avg","Rain_Tot","Press_Avg","Issui_Tot","Depth_cm","SR50A_Raw","Quality","Ground_Temp_Avg(1)","Ground_Temp_Avg(2)","SW_lower_Wm2_Avg","Albedo_Avg","SWC_per(1)","SWC_per(2)","Period(1)","Period(2)"
"TS","RN","","","","","","","","","","","","","","","","","","",""
"","","WVc","WVc","Avg","Avg","Avg","Tot","Avg","Tot","Smp","Smp","Smp","Avg","Avg","Avg","Avg","Smp","Smp","Smp","Smp"
"2017-06-08 00:00:00",291517,0.426,66.14,9.95,100,0,0,863.2468,0,-0.861,3.132,224,13.77,13.29,0.4736926,0,49.35,56.12,33.14,34.78
"2017-06-08 00:10:00",291518,0.551,17.68,10.03,100,0.08253595,0,863.1309,0,-1.443,3.137,221,13.7,13.28,0.6328533,0.386,49.35,56.12,33.14,34.78
"2017-06-08 00:20:00",291519,0.116,39.51,10.15,100,0.01965142,0,862.8867,0,-1.289,3.135,236,13.67,13.28,0.7541187,0.321,49.41,56.18,33.15,34.79
"2017-06-08 00:30:00",291520,0.445,10.67,10.1,100,0,0,863.0677,0,-1.777,3.141,221,13.67,13.25,0.3486378,0,49.35,56.18,33.14,34.79
"2017-06-08 00:40:00",291521,0.234,20.29,9.88,100,0,0,863.0151,0,-1.806,3.142,220,13.67,13.26,0.07200127,0,49.41,56.18,33.15,34.79
"2017-06-08 00:50:00",291522,0.104,24.1,9.81,100,0,0,862.8676,0,-1.679,3.141,229,13.68,13.25,0.2008457,0,49.46,56.18,33.16,34.79
"2017-06-08 01:00:00",291523,0.091,37.33,9.79,100,0,0,862.8824,0,-1.936,3.144,244,13.71,13.24,0.4395868,0,49.46,56.18,33.16,34.79
"2017-06-08 01:10:00",291524,0.131,47.43,9.75,100,0,0,862.8572,0,-1.02,3.135,255,13.65,13.24,0.3789541,0,49.46,56.18,33.16,34.79
"2017-06-08 01:20:00",291525,0.189,128.5,9.71,100,0,0,862.8382,0,-0.894,3.134,245,13.59,13.24,0.41306,0,49.46,56.18,33.16,34.79
"2017-06-08 01:30:00",291526,0.415,82.7,9.79,100,0,0,862.8529,0,-0.889,3.133,245,13.58,13.24,0.4547449,0,49.51,56.23,33.18,34.8
"2017-06-08 01:40:00",291527,0.574,86.4,9.8,100,0,0,862.7076,0,-1.655,3.141,220,13.58,13.24,0.4509554,0,49.51,56.23,33.18,34.8
"2017-06-08 01:50:00",291528,0.273,83.6,9.78,100,0,0,862.5032,0,-2.29,3.147,230,13.59,13.24,0.4509554,0,49.51,56.23,33.18,34.8
"2017-06-08 02:00:00",291529,0.323,58.66,9.84,100,0,0,862.3306,0,-3.052,3.154,219,13.61,13.24,0.4509554,0,49.57,56.23,33.19,34.8
"2017-06-08 02:10:00",291530,0.465,25.52,9.88,100,0,0,862.3516,0,-4.017,3.163,205,13.63,13.24,0.4547449,0,49.57,56.29,33.19,34.82
"2017-06-08 02:20:00",291531,0.108,103.9,10.01,100,0,0,862.2737,0,-4.066,3.163,208,13.57,13.24,0.4547449,0,49.62,56.29,33.2,34.82
"2017-06-08 02:30:00",291532,0.226,7.222,10.03,100,0,0,862.0967,0,-2.311,3.146,257,13.5,13.24,0.4547449,0,49.62,56.29,33.2,34.82
"2017-06-08 02:40:00",291533,0.049,37.14,10.02,100,0,0,861.9578,0,-2.743,3.15,223,13.5,13.24,0.4395868,0,49.62,56.29,33.2,34.82
"2017-06-08 02:50:00",291534,0.361,30.63,9.98,100,0,0,861.8251,0,-1.089,3.134,235,13.5,13.25,0.4433763,0,49.68,56.29,33.22,34.82
"2017-06-08 03:00:00",291535,0.438,37.31,10.05,100,0,0,861.7408,0,-4.217,3.164,197,13.5,13.25,0.5153776,0,49.62,56.35,33.2,34.83
"2017-06-08 03:10:00",291536,0.53,85.9,10.17,100,0,0,861.7177,0,-4.47,3.166,196,13.5,13.26,0.4547449,0,49.62,56.29,33.2,34.82
"2017-06-08 03:20:00",291537,0.561,76.44,10.25,100,0,0,861.8209,0,-3.346,3.154,201,13.52,13.27,0.511588,0,49.68,56.35,33.22,34.83
"2017-06-08 03:30:00",291538,0.253,24.36,10.46,100,0,0,861.823,0,-4.516,3.165,194,13.53,13.27,0.6063265,0,49.68,56.35,33.22,34.83
"2017-06-08 03:40:00",291539,0.127,344,10.46,100,0,0,861.8314,0,-4.952,3.17,193,13.53,13.28,0.4509554,0,49.68,56.35,33.22,34.83
"2017-06-08 03:50:00",291540,0.569,341.7,10.1,100,0,0,861.8356,0,-5.186,3.174,193,13.47,13.3,0.03031633,0,49.73,56.35,33.23,34.83
"2017-06-08 04:00:00",291541,0.178,16.83,10.05,100,0,0,861.8461,0,-5.085,3.173,193,13.45,13.32,0.1136862,0,49.68,56.35,33.22,34.83
"2017-06-08 04:10:00",291542,0.216,20.28,10.17,100,0,0,861.8251,0,-4.141,3.163,200,13.46,13.3,0.4471658,0,49.73,56.41,33.23,34.84
"2017-06-08 04:20:00",291543,0.453,40.47,10.29,100,0.007860567,0,861.8461,0,-3.73,3.158,206,13.42,13.27,0.4547449,0.064,49.73,56.41,33.23,34.84
"2017-06-08 04:30:00",291544,0.309,53.5,10.47,100,0.290841,0,861.8461,0,-3.852,3.158,200,13.41,13.27,0.4547449,0.691,49.73,56.41,33.23,34.84
"2017-06-08 04:40:00",291545,0.153,81.2,10.53,100,0.499146,0,861.8461,0,-4.26,3.162,197,13.42,13.23,0.4547449,0.935,49.73,56.41,33.23,34.84
"2017-06-08 04:50:00",291546,0.405,110.4,10.51,100,1.265551,0,861.8167,0,-4.618,3.166,194,13.45,13.2,0.4547449,0.378,49.79,56.46,33.24,34.86
"2017-06-08 05:00:00",291547,0.326,113.7,10.42,100,2.483939,0,861.823,0,-4.545,3.166,194,13.43,13.17,0.4547449,0.189,49.73,56.46,33.23,34.86
"2017-06-08 05:10:00",291548,0.249,93.7,10.48,100,4.559129,0,861.8293,0,0.044,3.12,370,13.38,13.15,0.8791735,0.188,49.79,56.46,33.24,34.86
"2017-06-08 05:20:00",291549,0.253,94.3,10.75,100,10.11655,0.5,861.6924,0,2.502,3.094,451,13.35,13.15,1.860665,0.184,49.79,56.46,33.24,34.86
"2017-06-08 05:30:00",291550,0.381,78.21,10.86,100,9.326563,0,861.823,0,-37.19,3.483,242,13.33,13.15,1.667398,0.179,49.79,56.52,33.24,34.87
"2017-06-08 05:40:00",291551,0.245,121,10.96,100,15.62288,0,861.8293,0,2.525,3.094,479,13.31,13.15,2.448043,0.159,49.84,56.52,33.26,34.87
"2017-06-08 05:50:00",291552,0.321,97.7,10.9,100,22.73276,0,861.7177,0,2.91,3.09,473,13.32,13.15,3.277953,0.144,49.79,56.52,33.24,34.87
"2017-06-08 06:00:00",291553,0.033,102.9,10.96,100,27.99934,0,861.6608,0,2.459,3.093,436,13.32,13.15,4.085125,0.146,49.84,56.52,33.26,34.87
"2017-06-08 06:10:00",291554,0.265,74.11,11.15,100,40.53694,0,861.8314,0,-1.826,3.135,252,13.32,13.15,5.661574,0.14,49.79,56.58,33.24,34.88
"2017-06-08 06:20:00",291555,0.417,15.15,11.22,100,49.17571,0,861.8378,0,-2.613,3.142,220,13.32,13.15,6.669592,0.136,49.84,56.58,33.26,34.88
"2017-06-08 06:30:00",291556,0.146,32.23,11.28,100,70.87086,0,861.7092,0,-2.074,3.136,253,13.32,13.15,9.538274,0.134,49.84,56.58,33.26,34.88
"2017-06-08 06:40:00",291557,0.433,102.8,11.33,100,63.67846,0,861.7239,0,-1.16,3.128,273,13.32,13.15,8.052774,0.126,49.9,56.58,33.27,34.88
"2017-06-08 06:50:00",291558,0.381,31.49,11.31,100,44.99389,0,861.7682,0,-2.151,3.137,235,13.32,13.15,5.964737,0.132,49.9,56.58,33.27,34.88
"2017-06-08 07:00:00",291559,0.279,55.39,11.4,100,67.74236,0,861.7982,0,-3.78,3.152,189,13.32,13.15,9.25027,0.136,49.9,56.58,33.27,34.88
"2017-06-08 07:10:00",291560,0.571,119.3,11.55,100,76.19247,0,861.6161,0,-3.985,3.154,188,13.32,13.15,10.05365,0.131,49.9,56.58,33.27,34.88
"2017-06-08 07:20:00",291561,0.691,76.24,11.58,100,91.80749,0,861.5928,0,-4.058,3.154,188,13.33,13.15,12.44106,0.135,49.9,56.58,33.27,34.88
"2017-06-08 07:30:00",291562,0.404,59.8,11.83,100,94.83774,0,861.5828,0,-3.592,3.148,192,13.32,13.15,12.63054,0.133,49.9,56.58,33.27,34.88
"2017-06-08 07:40:00",291563,0.389,2.258,11.94,100,66.12309,0,861.5681,0,-3.568,3.148,192,13.32,13.15,8.522677,0.128,49.9,56.64,33.27,34.9
"2017-06-08 07:50:00",291564,0.205,7.032,11.77,100,54.35975,0,861.5889,0,-3.393,3.147,195,13.32,13.15,6.665802,0.122,49.9,56.64,33.27,34.9
"2017-06-08 08:00:00",291565,0.21,95,11.88,100,96.37055,0,861.4566,0,-3.257,3.144,191,13.32,13.15,12.52064,0.13,49.9,56.64,33.27,34.9
"2017-06-08 08:10:00",291566,0.418,105.1,12.04,100,128.6382,0,861.3378,0,0.445,3.108,326,13.32,13.15,16.89756,0.131,49.9,56.64,33.27,34.9
"2017-06-08 08:20:00",291567,0.567,121.2,11.96,100,130.8627,0,861.3375,0,-2.95,3.141,201,13.32,13.15,16.86725,0.128,49.9,56.64,33.27,34.9
"2017-06-08 08:30:00",291568,0.261,20.96,12.27,100,129.1884,0,861.3203,0,3.578,3.075,473,13.32,13.15,17.15904,0.133,49.9,56.7,33.27,34.91
"2017-06-08 08:40:00",291569,0.338,338.2,12.49,100,122.7899,0,861.3115,0,3.428,3.076,308,13.29,13.15,15.84786,0.127,49.9,56.7,33.27,34.91
"2017-06-08 08:50:00",291570,0.129,338.6,12.4,100,98.59902,0,861.2936,0,1.66,3.094,261,13.28,13.15,12.52443,0.127,49.9,56.7,33.27,34.91
"2017-06-08 09:00:00",291571,0.395,30.3,12.36,100,106.9342,0,861.2975,0,-28.76,3.391,237,13.28,13.15,13.33148,0.123,49.9,56.75,33.27,34.93
"2017-06-08 09:10:00",291572,0.616,111.3,12.66,100,260.5436,0,861.2327,0,3.238,3.076,267,13.28,13.15,34.13961,0.131,49.9,56.75,33.27,34.93
"2017-06-08 09:20:00",291573,0.706,111.6,13.05,100,334.1738,0,861.2054,0,6.957,3.039,294,13.3,13.14,43.65846,0.13,49.95,56.7,33.28,34.91
"2017-06-08 09:30:00",291574,0.499,110.2,13.23,100,277.8186,0,861.0657,0,-31.32,3.41,251,13.28,13.13,36.57819,0.131,49.9,56.7,33.27,34.91
"2017-06-08 09:40:00",291575,0.509,111.1,13.47,100,262.0075,0,860.9973,0,9.09,3.015,335,13.32,13.11,33.54037,0.127,49.95,56.75,33.28,34.93
"2017-06-08 09:50:00",291576,0.743,80.4,13.63,100,260.4514,0,860.9991,0,4.892,3.057,274,13.3,13.08,34.32866,0.132,49.9,56.75,33.27,34.93
"2017-06-08 10:00:00",291577,0.632,26.41,13.35,100,151.3799,0,861.1022,0,1.716,3.089,298,13.33,13.06,19.69204,0.13,49.9,56.75,33.27,34.93
"2017-06-08 10:10:00",291578,0.643,121.9,13.15,100,235.2128,0,860.9984,0,2.663,3.08,375,13.34,13.05,31.10566,0.132,49.95,56.81,33.28,34.94
"2017-06-08 10:20:00",291579,0.577,107.7,13.43,100,354.6626,0,860.9963,0,3.913,3.065,374,13.33,13.06,47.22115,0.133,49.95,56.75,33.28,34.93
"2017-06-08 10:30:00",291580,0.343,116.4,14.07,100,583.3893,0,860.9857,0,3.816,3.062,374,13.35,13.03,79.01311,0.134,49.95,56.81,33.28,34.94
"2017-06-08 10:40:00",291581,0.489,127.5,14.66,100,445.6914,0,860.9921,0,4.283,3.057,283,13.31,12.99,60.54865,0.134,49.95,56.81,33.28,34.94
"2017-06-08 10:50:00",291582,0.51,79.79,14.38,99.7,185.5457,0,860.9963,0,-29.27,3.386,230,13.35,13.01,24.31317,0.13,49.95,56.81,33.28,34.94
"2017-06-08 11:00:00",291583,0.297,56.11,13.93,100,76.02918,0,861.0047,0,12.24,2.984,281,13.38,13.03,9.016056,0.118,49.95,56.81,33.28,34.94
"2017-06-08 11:10:00",291584,0.334,72.84,13.47,100,115.185,0,860.9941,0,12.68,2.981,260,13.44,13.03,14.96739,0.127,49.95,56.81,33.28,34.94
"2017-06-08 11:20:00",291585,0.409,117.1,13.66,100,344.0736,0,860.7731,0,12.3,2.982,344,13.43,12.98,46.28865,0.134,49.95,56.81,33.28,34.94
"2017-06-08 11:30:00",291586,0.297,94.8,14.02,100,242.8168,0,860.7457,0,8.29,3.02,311,13.47,12.99,30.63181,0.126,49.95,56.81,33.28,34.94
"2017-06-08 11:40:00",291587,0.218,123.2,14.13,100,193.0999,0.5,860.7457,0,-25.24,3.347,311,13.53,13,23.1197,0.119,49.95,56.87,33.28,34.95
"2017-06-08 11:50:00",291588,0.351,138.8,13.9,100,165.2358,1,860.7457,0,2.565,3.077,273,13.55,12.97,19.80498,0.12,49.95,56.87,33.28,34.95
"2017-06-08 12:00:00",291589,0.13,31.96,13.87,100,166.882,0,860.7309,0,1.968,3.084,530,13.57,12.96,20.75962,0.124,49.95,56.87,33.28,34.95
"2017-06-08 12:10:00",291590,0.157,35.43,13.78,100,188.4284,0,860.6846,0,-38.34,3.476,242,13.59,12.9,23.42276,0.124,49.95,56.87,33.28,34.95
"2017-06-08 12:20:00",291591,0.266,0.638,13.8,100,197.9089,0,860.5014,0,-27.31,3.37,306,13.65,12.91,24.9267,0.125,50.01,56.87,33.3,34.95
"2017-06-08 12:30:00",291592,0.263,343.4,13.7,100,155.987,0,860.533,0,2.938,3.075,292,13.66,12.91,19.43373,0.124,50.01,56.87,33.3,34.95
"2017-06-08 12:40:00",291593,0.403,20.39,13.67,100,110.8317,0,860.5562,0,-27.62,3.373,270,13.7,12.9,13.31192,0.119,50.06,56.87,33.31,34.95
"2017-06-08 12:50:00",291594,0.19,60.77,13.79,100,155.323,0.5,860.4846,0,-4.156,3.144,193,13.7,12.91,19.63072,0.126,50.17,56.87,33.34,34.95
"2017-06-08 13:00:00",291595,0.393,135.7,13.89,100,416.7119,0,860.2509,0,-2.867,3.13,202,13.69,12.91,54.84253,0.131,50.17,56.93,33.34,34.97
"2017-06-08 13:10:00",291596,0.763,117,14.18,100,582.0891,0,860.2403,0,1.807,3.083,266,13.77,12.97,78.84109,0.133,50.17,56.93,33.34,34.97
"2017-06-08 13:20:00",291597,0.386,102.8,14.56,100,476.0822,0,860.1351,0,-27.56,3.365,206,13.79,13,64.20708,0.134,50.22,56.93,33.35,34.97
"2017-06-08 13:30:00",291598,0.324,64.37,14.78,100,220.8539,0,859.9961,0,-2.736,3.124,200,13.85,13.01,28.82102,0.13,50.28,56.93,33.37,34.97
"2017-06-08 13:40:00",291599,0.206,31.19,14.92,100,439.378,0,859.9414,0,318,0,0,13.81,12.99,60.27867,0.136,50.33,56.93,33.38,34.97
"2017-06-08 13:50:00",291600,0.218,44.6,15.13,100,265.809,0,859.7898,0,11.29,2.986,297,13.87,12.98,34.83677,0.131,50.33,56.98,33.38,34.98
"2017-06-08 14:00:00",291601,0.145,21.56,14.8,100,218.4887,0,859.8046,0,-2.144,3.118,213,13.91,13,29.52185,0.133,50.39,56.98,33.39,34.98
"2017-06-08 14:10:00",291602,0.18,338,14.66,100,160.1203,0,859.7455,0,-27.37,3.365,226,13.94,13.01,20.7672,0.129,50.39,56.98,33.39,34.98
"2017-06-08 14:20:00",291603,0.085,279.9,14.55,100,167.8485,0,859.8719,0,-3.666,3.134,187,13.97,13.01,23.23335,0.138,50.39,57.04,33.39,34.99
"2017-06-08 14:30:00",291604,0.096,186.2,14.56,100,113.3855,0,859.9877,0,-3.877,3.137,187,14.02,13.01,14.63781,0.125,50.44,57.04,33.41,34.99
"2017-06-08 14:40:00",291605,0.135,18.96,14.37,100,82.90077,0,859.8761,0,-3.804,3.137,195,14.01,13.01,10.94805,0.132,50.39,57.1,33.39,35.01
"2017-06-08 14:50:00",291606,0.057,58.97,14.27,100,91.41479,0,859.9266,0,-28.29,3.376,241,14.05,13.01,12.09589,0.128,50.44,57.1,33.41,35.01
"2017-06-08 15:00:00",291607,0.145,252.5,14.64,100,422.0671,0,859.9772,0,3.037,3.065,330,14.1,13.01,60.4605,0.143,50.39,57.16,33.39,35.02
"2017-06-08 15:10:00",291608,0.388,32.19,15.59,99.4,456.0918,0,859.7877,0,2.713,3.067,325,14.11,12.95,63.92297,0.139,50.39,57.16,33.39,35.02
"2017-06-08 15:20:00",291609,0.357,293.5,14.97,98.4,159.0398,0,859.7351,0,318,0,0,14.16,12.94,21.49833,0.134,50.39,57.16,33.39,35.02
"2017-06-08 15:30:00",291610,0.156,301.3,15.04,100,302.5917,0,859.7351,0,4.27,3.053,327,14.16,12.94,43.51186,0.143,50.44,57.22,33.41,35.03
"2017-06-08 15:40:00",291611,0.218,292.9,14.84,100,108.9654,0,859.7435,0,2.414,3.075,415,14.23,12.94,14.32338,0.131,50.44,57.16,33.41,35.02
"2017-06-08 15:50:00",291612,0.112,283,14.45,100,60.26218,0,859.7519,0,3.077,3.069,262,14.23,12.97,7.818953,0.129,50.39,57.22,33.39,35.03
"2017-06-08 16:00:00",291613,0.144,175.8,14.84,100,330.0944,0,859.7288,0,-4.041,3.132,236,14.25,12.96,54.78949,0.164,50.44,57.22,33.41,35.03
"2017-06-08 16:10:00",291614,0.306,226,15.51,96.7,216.2571,0,859.7288,0,1.084,3.084,282,14.3,13,31.83647,0.145,50.39,57.22,33.39,35.03
"2017-06-08 16:20:00",291615,0.232,243.7,14.96,99.1,67.22427,0,859.7014,0,1.26,3.086,336,14.31,12.99,7.254503,0.072,50.44,57.27,33.41,35.05
"2017-06-08 16:30:00",291616,0.45,237.2,14.23,100,10.13275,0,859.674,0,-3.199,3.133,207,14.33,12.93,0.1704713,0.012,50.44,57.33,33.41,35.06
"2017-06-08 16:40:00",291617,1.163,317,13.6,100,17.9985,0,859.7477,0,-0.292,3.107,246,14.39,12.97,2.754059,0.147,50.39,57.33,33.39,35.06
"2017-06-08 16:50:00",291618,0.658,324,13.5,100,48.56178,0,859.7435,0,-0.395,3.108,223,14.4,12.97,7.966694,0.166,50.39,57.27,33.39,35.05
"2017-06-08 17:00:00",291619,0.64,306.5,13.51,100,46.29903,0,859.7372,0,-1.169,3.116,231,14.39,12.98,7.409873,0.16,50.44,57.33,33.41,35.06
"2017-06-08 17:10:00",291620,0.639,296.4,13.38,100,42.06048,0,859.8633,0,0.536,3.1,232,14.37,12.98,6.724325,0.16,50.44,57.39,33.41,35.07
"2017-06-08 17:20:00",291621,0.759,284.5,13.27,100,41.4507,0,859.9979,0,-0.862,3.114,264,14.43,13,6.717257,0.162,50.39,57.33,33.39,35.06
"2017-06-08 17:30:00",291622,0.618,287.1,13.24,100,63.12502,0,860.0316,0,-0.845,3.114,273,14.52,13.02,10.63917,0.168,50.44,57.39,33.41,35.07
"2017-06-08 17:40:00",291623,0.64,327.5,13.48,96.8,140.0627,0,860.0247,0,0.883,3.095,239,14.54,13.09,23.34396,0.166,50.44,57.39,33.41,35.07
"2017-06-08 17:50:00",291624,0.745,306.2,13.65,94.2,137.5654,0,860.0995,0,318,0,0,14.54,13.16,23.20031,0.168,50.44,57.45,33.41,35.09
"2017-06-08 18:00:00",291625,0.456,223.4,13.53,99,64.97354,0,860.1085,0,-0.467,3.109,221,14.55,13.18,10.4544,0.161,50.39,57.39,33.39,35.07
"2017-06-08 18:10:00",291626,0.389,230.7,13.42,100,54.32573,0,860.2697,0,-0.935,3.114,229,14.55,13.18,8.795107,0.162,50.39,57.39,33.39,35.07
"2017-06-08 18:20:00",291627,0.298,249.3,13.33,100,31.63764,0,860.279,0,0.184,3.104,225,14.56,13.18,5.399902,0.173,50.44,57.45,33.41,35.09
"2017-06-08 18:30:00",291628,0.615,283.2,13.19,99.4,6.41406,0,860.3694,0,0.639,3.1,245,14.6,13.19,1.750726,0.323,50.39,57.45,33.39,35.09
"2017-06-08 18:40:00",291629,0.905,265.9,13.01,98.8,6.087888,0,860.5537,0,1.736,3.09,241,14.59,13.19,1.978101,0.329,50.39,57.45,33.39,35.09
"2017-06-08 18:50:00",291630,0.966,294.8,12.86,99.8,6.099724,0,860.7141,0,-0.318,3.111,235,14.58,13.19,2.205486,0.372,50.39,57.45,33.39,35.09
"2017-06-08 19:00:00",291631,0.564,277.2,12.73,99.2,5.635996,0,860.7443,0,-0.506,3.114,278,14.59,13.19,2.156238,0.412,50.39,57.45,33.39,35.09
"2017-06-08 19:10:00",291632,0.708,268.6,12.55,97.3,0.7585434,0,860.7733,0,-1.023,3.12,230,14.58,13.2,1.106544,1.896,50.33,57.45,33.38,35.09
"2017-06-08 19:20:00",291633,0.811,279,12.44,90.3,0.1965141,0,860.8197,0,-0.819,3.118,227,14.58,13.2,1.352866,1.503,50.39,57.45,33.39,35.09
"2017-06-08 19:30:00",291634,0.66,247.1,12.29,93.7,0,0,860.8258,0,-1.184,3.123,240,14.58,13.22,1.102756,0,50.33,57.51,33.38,35.1
"2017-06-08 19:40:00",291635,0.468,260.9,12.12,96.6,0,0,860.8293,0,-0.955,3.121,240,14.59,13.26,1.000439,0,50.33,57.51,33.38,35.1
"2017-06-08 19:50:00",291636,0.719,193.7,12.01,97.4,0,0,860.8338,0,-3.29,3.146,211,14.62,13.3,0.9322271,0,50.33,57.51,33.38,35.1
"2017-06-08 20:00:00",291637,0.597,194.3,11.63,100,0,0,860.858,0,-3.27,3.147,227,14.61,13.32,0.5873788,0,50.33,57.51,33.38,35.1
"2017-06-08 20:10:00",291638,0.536,241.5,11.47,100,0,0,860.9699,0,-3.809,3.153,201,14.52,13.32,0.5494834,0,50.33,57.56,33.38,35.12
"2017-06-08 20:20:00",291639,0.233,208.5,11.34,100,0,0,861.0879,0,-4.347,3.159,193,14.51,13.32,0.5835893,0,50.39,57.51,33.39,35.1
"2017-06-08 20:30:00",291640,0.179,139.8,11.03,100,0,0,861.1995,0,-4.331,3.161,194,14.54,13.32,0.4547449,0,50.33,57.56,33.38,35.12
"2017-06-08 20:40:00",291641,0.245,177.1,10.83,100,0,0,861.3322,0,-4.252,3.16,195,14.54,13.32,0.4547449,0,50.33,57.56,33.38,35.12
"2017-06-08 20:50:00",291642,0.292,187.5,10.88,100,0,0,861.5217,0,-3.972,3.157,201,14.54,13.32,0.5797998,0,50.33,57.56,33.38,35.12
"2017-06-08 21:00:00",291643,0.373,248.8,11.13,100,0,0,861.585,0,-4.397,3.159,189,14.53,13.32,1.083809,0,50.33,57.56,33.38,35.12
"2017-06-08 21:10:00",291644,0.381,169.2,11.18,100,0,0,861.5934,0,-4.531,3.162,181,14.43,13.32,0.735171,0,50.33,57.56,33.38,35.12
"2017-06-08 21:20:00",291645,0.645,174.2,11.07,100,0,0,861.6017,0,-4.706,3.163,185,14.41,13.32,0.7806454,0,50.33,57.56,33.38,35.12
"2017-06-08 21:30:00",291646,0.394,162.7,11.23,99.9,0,0,861.6144,0,-4.425,3.16,193,14.43,13.32,0.966333,0,50.33,57.56,33.38,35.12
"2017-06-08 21:40:00",291647,0.604,187.8,11.22,100,0,0,861.3764,0,-4.604,3.162,182,14.46,13.32,0.9094898,0,50.33,57.56,33.38,35.12
"2017-06-08 21:50:00",291648,0.397,223.9,11.23,99.1,0,0,861.4417,0,-1.743,3.133,270,14.38,13.32,0.924648,0,50.33,57.56,33.38,35.12
"2017-06-08 22:00:00",291649,0.509,55.59,11.3,96.8,0,0,861.4502,0,-4.148,3.158,198,14.36,13.32,0.924648,0,50.33,57.56,33.38,35.12
"2017-06-08 22:10:00",291650,0.222,50.97,10.96,100,0,0,861.2185,0,-3.539,3.153,211,14.36,13.32,0.4812717,0,50.28,57.56,33.37,35.12
"2017-06-08 22:20:00",291651,0.22,341.6,11.05,99.3,0,0,861.3301,0,1.168,3.104,354,14.37,13.32,0.9890702,0,50.33,57.62,33.38,35.13
"2017-06-08 22:30:00",291652,0.186,102.7,10.93,94,0,0,861.4039,0,0.467,3.118,375,14.3,13.33,0.651801,0,50.33,57.62,33.38,35.13
"2017-06-08 22:40:00",291653,0.012,172.7,10.01,100,0,0,861.5407,0,0.079,3.123,371,14.28,13.32,0,0,50.33,57.62,33.38,35.13
"2017-06-08 22:50:00",291654,0,0,9.99,100,0,0,861.526,0,-0.861,3.132,299,14.3,13.32,0.4244286,0,50.39,57.62,33.39,35.13
"2017-06-08 23:00:00",291655,0.116,178.5,9.62,100,0,0,861.4417,0,0.091,3.126,343,14.23,13.32,0.181898,0,50.33,57.62,33.38,35.13
"2017-06-08 23:10:00",291656,0.03,183.6,9.31,100,0,0,861.347,0,-0.011,3.127,309,14.19,13.32,0.3524273,0,50.33,57.62,33.38,35.13
"2017-06-08 23:20:00",291657,0,0,9.54,100,0,0,861.3407,0,-0.168,3.128,307,14.21,13.33,1.1293,0,50.33,57.62,33.38,35.13
"2017-06-08 23:30:00",291658,0.008,183.8,9.6,100,0,0,861.4249,0,-0.489,3.132,256,14.2,13.36,1.239284,0,50.33,57.62,33.38,35.13
"2017-06-08 23:40:00",291659,0.033,183.8,9.03,100,0,0,861.387,0,-0.501,3.135,233,14.14,13.36,0.2236117,0,50.33,57.62,33.38,35.13
"2017-06-08 23:50:00",291660,0.109,159.5,8.85,100,0,0,861.17,0,-0.594,3.133,241,14.19,13.36,0.6291515,0,50.28,57.62,33.37,35.13
